TimeAKDT,TemperatureF,Dew PointF,Humidity,Sea Level PressureIn,VisibilityMPH,Wind Direction,Wind SpeedMPH,Gust SpeedMPH,PrecipitationIn,Events,Conditions,WindDirDegrees,DateUTC
12:53 AM,33.1,14.0,46,30.12,10.0,North,12.7,-,N/A,,Clear,360,2013-04-18 08:53:00
1:53 AM,32.0,14.0,48,30.13,10.0,NNE,13.8,21.9,N/A,,Clear,20,2013-04-18 09:53:00
2:53 AM,30.9,14.0,50,30.14,10.0,North,11.5,20.7,N/A,,Clear,10,2013-04-18 10:53:00
3:53 AM,28.9,14.0,54,30.14,10.0,NNE,15.0,-,N/A,,Clear,20,2013-04-18 11:53:00
4:53 AM,28.9,14.0,54,30.14,10.0,NNE,11.5,-,N/A,,Clear,30,2013-04-18 12:53:00
5:53 AM,28.0,14.0,56,30.14,10.0,North,13.8,-,N/A,,Clear,10,2013-04-18 13:53:00
6:53 AM,27.0,14.0,58,30.13,10.0,NNE,13.8,20.7,N/A,,Clear,20,2013-04-18 14:53:00
7:53 AM,26.1,14.0,60,30.14,10.0,NNE,13.8,-,N/A,,Clear,20,2013-04-18 15:53:00
8:53 AM,28.9,15.1,56,30.13,10.0,North,11.5,21.9,N/A,,Clear,10,2013-04-18 16:53:00
9:53 AM,33.1,16.0,50,30.12,10.0,NNE,10.4,-,N/A,,Clear,20,2013-04-18 17:53:00
10:53 AM,36.0,16.0,44,30.12,10.0,North,13.8,19.6,N/A,,Clear,10,2013-04-18 18:53:00
11:53 AM,37.9,16.0,41,30.11,10.0,NNW,13.8,20.7,N/A,,Clear,330,2013-04-18 19:53:00
12:53 PM,39.9,16.0,38,30.10,10.0,NNW,10.4,16.1,N/A,,Clear,340,2013-04-18 20:53:00
1:53 PM,41.0,16.0,36,30.09,10.0,NNW,10.4,-,N/A,,Clear,330,2013-04-18 21:53:00
2:53 PM,42.1,15.1,34,30.09,10.0,WNW,9.2,-,N/A,,Clear,290,2013-04-18 22:53:00
3:53 PM,42.1,15.1,34,30.09,10.0,WNW,11.5,18.4,N/A,,Clear,300,2013-04-18 23:53:00
4:53 PM,43.0,16.0,34,30.08,10.0,WNW,10.4,-,N/A,,Clear,300,2013-04-19 00:53:00
5:53 PM,42.1,14.0,32,30.07,10.0,NW,9.2,-,N/A,,Clear,310,2013-04-19 01:53:00
6:53 PM,42.1,14.0,32,30.07,10.0,NW,12.7,-,N/A,,Clear,310,2013-04-19 02:53:00
7:53 PM,39.9,14.0,35,30.08,10.0,NW,11.5,17.3,N/A,,Clear,310,2013-04-19 03:53:00
8:53 PM,39.0,14.0,36,30.08,10.0,NW,8.1,-,N/A,,Clear,320,2013-04-19 04:53:00
9:53 PM,37.0,15.1,41,30.10,10.0,NNE,8.1,-,N/A,,Clear,20,2013-04-19 05:53:00
10:53 PM,34.0,16.0,48,30.12,10.0,NNE,8.1,-,N/A,,Clear,20,2013-04-19 06:53:00
11:53 PM,30.9,17.1,57,30.12,10.0,NNE,8.1,-,N/A,,Clear,20,2013-04-19 07:53:00